When you browse on this site, cookies collect data to enhance your experience and personalize the content and advertising you see.
Visit our Privacy Policy to learn more. By continuing to use the site, you agree to this use of cookies and data.
  • In France
  • List of Countries
  • For 7 days
  • Water Temperature
  • Satellite Maps
  • Weather Map
  • Weather Widgets
  • user-avatar
    Login

    Hourly Weather Traiguen

    Today, 20 July, Saturday

    Time Temperature Precipitation Wind Pressure Humidity
    00:00 +8°C° 0.3 mm 3 mps 742 mmHg 94%
    01:00 +8°C° 0 mm 3 mps 742 mmHg 94%
    02:00 +8°C° 0.1 mm 3 mps 741 mmHg 94%
    03:00 +7°C° 0.1 mm 3 mps 740 mmHg 94%
    04:00 +7°C° 0.1 mm 3 mps 740 mmHg 94%
    05:00 +7°C° 0.2 mm 4 mps 739 mmHg 94%
    06:00 +7°C° 0.2 mm 5 mps 738 mmHg 94%
    07:00 +7°C° 0.2 mm 5 mps 737 mmHg 94%
    08:00 +7°C° 2.4 mm 6 mps 736 mmHg 94%
    09:00 +8°C° 2.4 mm 6 mps 736 mmHg 94%
    10:00 +8°C° 2.4 mm 7 mps 736 mmHg 94%
    11:00 +8°C° 3.5 mm 7 mps 735 mmHg 94%
    12:00 +9°C° 3.5 mm 7 mps 734 mmHg 94%
    13:00 +9°C° 3.5 mm 7 mps 733 mmHg 94%
    14:00 +9°C° 5.1 mm 6 mps 733 mmHg 94%
    15:00 +8°C° 5.1 mm 5 mps 732 mmHg 94%
    16:00 +8°C° 5.1 mm 4 mps 732 mmHg 95%
    17:00 +7°C° 3 mm 4 mps 733 mmHg 95%
    18:00 +7°C° 3 mm 4 mps 733 mmHg 95%
    19:00 +7°C° 3 mm 3 mps 733 mmHg 95%
    20:00 +7°C° 0.2 mm 3 mps 733 mmHg 93%
    21:00 +5°C° 0.2 mm 3 mps 734 mmHg 92%
    22:00 +5°C° 0.2 mm 2 mps 735 mmHg 91%
    23:00 +5°C° 0.1 mm 2 mps 735 mmHg 91%

    Tomorrow, 21 July, Sunday

    Time Temperature Precipitation Wind Pressure Humidity
    00:00 +4°C° 0.1 mm 2 mps 735 mmHg 92%
    01:00 +3°C° 0.1 mm 3 mps 735 mmHg 92%
    02:00 +3°C° 0.4 mm 3 mps 736 mmHg 92%
    03:00 +4°C° 0.4 mm 4 mps 736 mmHg 92%
    04:00 +4°C° 0.4 mm 4 mps 736 mmHg 92%
    05:00 +3°C° 0.2 mm 4 mps 737 mmHg 91%
    06:00 +3°C° 0.2 mm 3 mps 737 mmHg 91%
    07:00 +3°C° 0.2 mm 3 mps 738 mmHg 91%
    08:00 +4°C° 0.3 mm 3 mps 739 mmHg 88%
    09:00 +5°C° 0.3 mm 4 mps 740 mmHg 86%
    10:00 +6°C° 0.3 mm 4 mps 741 mmHg 83%
    11:00 +6°C° 0.4 mm 4 mps 741 mmHg 83%
    12:00 +7°C° 0.4 mm 4 mps 742 mmHg 83%
    13:00 +7°C° 0.4 mm 4 mps 742 mmHg 82%
    14:00 +8°C° 0.4 mm 3 mps 742 mmHg 85%
    15:00 +7°C° 0.4 mm 3 mps 743 mmHg 87%
    16:00 +7°C° 0.4 mm 2 mps 744 mmHg 89%
    17:00 +6°C° 0.5 mm 2 mps 744 mmHg 91%
    18:00 +6°C° 0.5 mm 1 mps 745 mmHg 93%
    19:00 +5°C° 0.5 mm 1 mps 745 mmHg 95%
    20:00 +5°C° 0.3 mm 1 mps 746 mmHg 95%
    21:00 +4°C° 0.3 mm 1 mps 747 mmHg 95%
    22:00 +4°C° 0.3 mm 1 mps 748 mmHg 96%
    23:00 +4°C° 0.1 mm 1 mps 748 mmHg 96%

    Day after tomorrow, 22 July, Monday

    Time Temperature Precipitation Wind Pressure Humidity
    00:00 +4°C° 0.1 mm 1 mps 748 mmHg 96%
    01:00 +3°C° 0.1 mm 1 mps 748 mmHg 96%
    02:00 +3°C° 0.1 mm 1 mps 748 mmHg 97%
    03:00 +3°C° 0.1 mm 1 mps 749 mmHg 97%
    04:00 +3°C° 0.1 mm 1 mps 749 mmHg 97%
    05:00 +3°C° 0 mm 1 mps 749 mmHg 97%
    06:00 +3°C° 0 mm 1 mps 750 mmHg 97%
    07:00 +2°C° 0 mm 0 mps 750 mmHg 97%
    08:00 +3°C° 0 mm 0 mps 751 mmHg 94%
    09:00 +5°C° 0 mm 0 mps 751 mmHg 92%
    10:00 +6°C° 0 mm 0 mps 752 mmHg 89%
    11:00 +7°C° 0 mm 0 mps 751 mmHg 84%
    12:00 +8°C° 0 mm 1 mps 751 mmHg 79%
    13:00 +9°C° 0 mm 1 mps 751 mmHg 73%
    14:00 +9°C° 0 mm 1 mps 751 mmHg 76%
    15:00 +8°C° 0 mm 1 mps 751 mmHg 78%
    16:00 +8°C° 0 mm 1 mps 752 mmHg 81%
    17:00 +7°C° 0 mm 1 mps 752 mmHg 85%
    18:00 +5°C° 0 mm 1 mps 752 mmHg 89%
    19:00 +4°C° 0 mm 1 mps 752 mmHg 92%
    20:00 +4°C° 0 mm 1 mps 753 mmHg 93%
    21:00 +3°C° 0 mm 1 mps 753 mmHg 94%
    22:00 +3°C° 0 mm 1 mps 753 mmHg 94%
    23:00 +3°C° 0 mm 1 mps 753 mmHg 94%

    23 July, Tuesday

    Time Temperature Precipitation Wind Pressure Humidity
    00:00 +2°C° 0 mm 1 mps 753 mmHg 94%
    01:00 +2°C° 0 mm 1 mps 753 mmHg 94%
    02:00 +2°C° 0 mm 1 mps 753 mmHg 95%
    03:00 +2°C° 0 mm 1 mps 753 mmHg 95%
    04:00 +2°C° 0 mm 1 mps 753 mmHg 96%
    05:00 +1°C° 0 mm 1 mps 753 mmHg 96%
    06:00 +1°C° 0 mm 1 mps 753 mmHg 96%
    07:00 +1°C° 0 mm 1 mps 754 mmHg 97%
    08:00 +2°C° 0 mm 2 mps 754 mmHg 91%
    09:00 +4°C° 0 mm 2 mps 754 mmHg 86%
    10:00 +4°C° 0 mm 3 mps 754 mmHg 80%
    11:00 +5°C° 0 mm 3 mps 754 mmHg 77%
    12:00 +6°C° 0 mm 4 mps 753 mmHg 74%
    13:00 +7°C° 0 mm 4 mps 753 mmHg 71%
    14:00 +6°C° 0 mm 4 mps 753 mmHg 73%
    15:00 +7°C° 0 mm 3 mps 753 mmHg 76%
    16:00 +7°C° 0 mm 3 mps 753 mmHg 79%
    17:00 +4°C° 0 mm 3 mps 753 mmHg 83%
    18:00 +4°C° 0 mm 2 mps 754 mmHg 88%
    19:00 +3°C° 0 mm 1 mps 754 mmHg 93%
    20:00 +3°C° 0 mm 1 mps 754 mmHg 93%
    21:00 +3°C° 0 mm 1 mps 754 mmHg 94%
    22:00 +2°C° 0 mm 1 mps 754 mmHg 95%
    23:00 +2°C° 0 mm 1 mps 754 mmHg 95%

    24 July, Wednesday

    Time Temperature Precipitation Wind Pressure Humidity
    00:00 +2°C° 0 mm 1 mps 754 mmHg 96%
    01:00 +2°C° 0 mm 1 mps 754 mmHg 96%
    02:00 +2°C° 0 mm 1 mps 753 mmHg 96%
    03:00 +2°C° 0 mm 1 mps 753 mmHg 96%
    04:00 +1°C° 0 mm 1 mps 753 mmHg 97%
    05:00 +1°C° 0 mm 1 mps 752 mmHg 96%
    06:00 +1°C° 0 mm 1 mps 752 mmHg 96%
    07:00 +1°C° 0 mm 1 mps 752 mmHg 96%
    08:00 +2°C° 0 mm 2 mps 752 mmHg 90%
    09:00 +3°C° 0 mm 2 mps 752 mmHg 83%
    10:00 +5°C° 0 mm 2 mps 751 mmHg 77%
    11:00 +6°C° 0 mm 2 mps 751 mmHg 74%
    12:00 +7°C° 0 mm 2 mps 750 mmHg 71%
    13:00 +9°C° 0 mm 2 mps 750 mmHg 68%
    14:00 +8°C° 0 mm 2 mps 749 mmHg 72%
    15:00 +8°C° 0 mm 2 mps 749 mmHg 76%
    16:00 +8°C° 0 mm 1 mps 748 mmHg 79%
    17:00 +7°C° 0 mm 1 mps 748 mmHg 84%
    18:00 +5°C° 0 mm 1 mps 748 mmHg 88%
    19:00 +4°C° 0 mm 1 mps 748 mmHg 92%
    20:00 +3°C° 0 mm 0 mps 748 mmHg 92%
    21:00 +2°C° 0 mm 0 mps 748 mmHg 92%
    22:00 +2°C° 0 mm 0 mps 748 mmHg 93%
    23:00 +2°C° 0 mm 0 mps 748 mmHg 93%

    25 July, Thursday

    Time Temperature Precipitation Wind Pressure Humidity
    00:00 +2°C° 0 mm 0 mps 747 mmHg 92%
    01:00 +2°C° 0 mm 0 mps 747 mmHg 92%
    02:00 +2°C° 0 mm 0 mps 747 mmHg 92%
    03:00 +2°C° 0 mm 0 mps 747 mmHg 91%
    04:00 +2°C° 0 mm 0 mps 747 mmHg 90%
    05:00 +2°C° 0 mm 0 mps 747 mmHg 90%
    06:00 +2°C° 0 mm 0 mps 747 mmHg 90%
    07:00 +2°C° 0 mm 0 mps 747 mmHg 90%
    08:00 +3°C° 0 mm 0 mps 748 mmHg 85%
    09:00 +6°C° 0 mm 1 mps 748 mmHg 81%
    10:00 +8°C° 0 mm 1 mps 748 mmHg 76%
    11:00 +9°C° 0 mm 1 mps 748 mmHg 74%
    12:00 +10°C° 0 mm 1 mps 748 mmHg 71%
    13:00 +12°C° 0 mm 1 mps 748 mmHg 69%
    14:00 +11°C° 0 mm 1 mps 749 mmHg 73%
    15:00 +10°C° 0 mm 1 mps 749 mmHg 78%
    16:00 +10°C° 0 mm 1 mps 749 mmHg 82%
    17:00 +9°C° 0 mm 1 mps 750 mmHg 84%
    18:00 +8°C° 0 mm 1 mps 750 mmHg 87%
    19:00 +6°C° 0 mm 0 mps 750 mmHg 89%
    20:00 +6°C° 0 mm 1 mps 751 mmHg 90%
    21:00 +6°C° 0 mm 1 mps 751 mmHg 91%
    22:00 +6°C° 0 mm 1 mps 751 mmHg 93%
    23:00 +6°C° 0 mm 1 mps 751 mmHg 93%
    Show more